This is the latest recevied weather packets stored in our database for station/object K42C. If no packets are shown the sender has not sent any weather packets the latest 10 day(s).
| Time | Temp. | Humidity | Pressure | Rain* | Wind** | Luminosity | Snow |
|---|---|---|---|---|---|---|---|
| 1777668608 | 6.67° C | 58% | 979.1 hPa | 0 mm | 0 m/s | - | - |
| 1777668211 | 6.67° C | 58% | 979 hPa | 0 mm | 0 m/s | - | - |
| 1777667810 | 6.67° C | 59% | 979 hPa | 0 mm | 0 m/s | - | - |
| 1777667413 | 6.67° C | 58% | 979.1 hPa | 0 mm | 0 m/s | - | - |
| 1777667012 | 6.67° C | 58% | 979 hPa | 0 mm | 0 m/s | - | - |
| 1777666615 | 6.67° C | 61% | 979.1 hPa | 0 mm | 0 m/s | - | - |
| 1777666214 | 6.67° C | 59% | 979.1 hPa | 0 mm | 0 m/s | - | - |
| 1777665817 | 7.22° C | 58% | 979 hPa | 0 mm | 0 m/s | - | - |
| 1777665416 | 7.22° C | 58% | 979 hPa | 0 mm | 0 m/s | - | - |
| 1777665019 | 7.22° C | 59% | 979.1 hPa | 0 mm | 0 m/s | - | - |
| 1777664618 | 6.67° C | 61% | 979 hPa | 0 mm | 0 m/s | - | - |
| 1777664221 | 6.67° C | 60% | 978.9 hPa | 0 mm | 0 m/s | - | - |
| 1777663820 | 6.67° C | 60% | 978.9 hPa | 0 mm | 0 m/s | - | - |
| 1777663423 | 6.67° C | 59% | 978.8 hPa | 0 mm | 0 m/s | - | - |
| 1777663022 | 7.22° C | 57% | 978.7 hPa | 0 mm | 0 m/s | - | - |
| 1777662625 | 7.22° C | 58% | 978.7 hPa | 0 mm | 0 m/s | - | - |
| 1777662224 | 7.22° C | 58% | 978.5 hPa | 0 mm | 0 m/s | - | - |
| 1777661426 | 7.22° C | 60% | 978.7 hPa | 0 mm | 0 m/s | - | - |
| 1777661029 | 7.22° C | 59% | 978.8 hPa | 0 mm | 0 m/s | - | - |
| 1777660628 | 6.67° C | 59% | 978.7 hPa | 0 mm | 0 m/s | - | - |
| 1777660231 | 6.67° C | 59% | 978.7 hPa | 0 mm | 0 m/s | - | - |
| 1777659830 | 7.22° C | 59% | 978.8 hPa | 0 mm | 0 m/s | - | - |
| 1777659433 | 7.22° C | 62% | 978.7 hPa | 0 mm | 0 m/s | - | - |
| 1777659032 | 7.22° C | 61% | 978.7 hPa | 0 mm | 0 m/s | - | - |
| 1777658635 | 6.67° C | 61% | 978.6 hPa | 0 mm | 0 m/s | - | - |
* Rain latest hour (hover to see other rain measurements)
** Current wind speed in m/s (hover to see current wind gust speed)